This is the latest recevied weather packets stored in our database for station/object K1BWE-1. If no packets are shown the sender has not sent any weather packets the latest 10 day(s).
| Time | Temp. | Humidity | Pressure | Rain* | Wind** | Luminosity | Snow |
|---|---|---|---|---|---|---|---|
| 1778051720 | 12.78° C | 69% | 1016.2 hPa | 0 mm | - | 0 W/m² | - |
| 1778051417 | 13.33° C | 68% | 1016.1 hPa | 0 mm | - | 0 W/m² | - |
| 1778051115 | 13.33° C | 66% | 1016.3 hPa | 0 mm | - | 0 W/m² | - |
| 1778050811 | 13.89° C | 64% | 1016.2 hPa | 0 mm | - | 0 W/m² | - |
| 1778050509 | 13.89° C | 63% | 1015.9 hPa | 0 mm | - | 0 W/m² | - |
| 1778050205 | 13.89° C | 61% | 1016.1 hPa | 0 mm | - | 0 W/m² | - |
| 1778049902 | 14.44° C | 60% | 1016.1 hPa | 0 mm | - | 0 W/m² | - |
| 1778049598 | 14.44° C | 51% | 1015.9 hPa | 0 mm | - | 0 W/m² | - |
| 1778049296 | 14.44° C | 52% | 1015.9 hPa | 0 mm | - | 0 W/m² | - |
| 1778048993 | 14.44° C | 50% | 1015.9 hPa | 0 mm | - | 0 W/m² | - |
| 1778048692 | 13.89° C | 50% | 1015.6 hPa | 0 mm | - | 0 W/m² | - |
| 1778048388 | 13.89° C | 56% | 1016 hPa | 0 mm | - | 0 W/m² | - |
| 1778048084 | 13.89° C | 52% | 1015.9 hPa | 0 mm | - | 0 W/m² | - |
| 1778047782 | 13.89° C | 52% | 1015.6 hPa | 0 mm | - | 0 W/m² | - |
| 1778047481 | 14.44° C | 53% | 1015.9 hPa | 0 mm | - | 0 W/m² | - |
| 1778047177 | 14.44° C | 51% | 1015.6 hPa | 0 mm | - | 0 W/m² | - |
| 1778046874 | 14.44° C | 51% | 1015.8 hPa | 0 mm | - | 0 W/m² | - |
| 1778046570 | 15° C | 53% | 1015.9 hPa | 0 mm | - | 0 W/m² | - |
| 1778046267 | 15° C | 53% | 1015.9 hPa | 0 mm | - | 0 W/m² | - |
| 1778045963 | 15° C | 56% | 1015.8 hPa | 0 mm | - | 0 W/m² | - |
| 1778045662 | 14.44° C | 54% | 1015.8 hPa | 0 mm | - | 0 W/m² | - |
| 1778045360 | 14.44° C | 57% | 1015.5 hPa | 0 mm | - | 0 W/m² | - |
| 1778045058 | 14.44° C | 57% | 1015.5 hPa | 0 mm | - | 0 W/m² | - |
| 1778044756 | 14.44° C | 56% | 1015.5 hPa | 0 mm | - | 0 W/m² | - |
| 1778044452 | 14.44° C | 57% | 1015.5 hPa | 0 mm | - | 0 W/m² | - |
* Rain latest hour (hover to see other rain measurements)
** Current wind speed in m/s (hover to see current wind gust speed)